TimeEDT,TemperatureF,Dew PointF,Humidity,Sea Level PressureIn,VisibilityMPH,Wind Direction,Wind SpeedMPH,Gust SpeedMPH,PrecipitationIn,Events,Conditions,WindDirDegrees,DateUTC
12:53 AM,78.1,73.9,87,30.13,10.0,ESE,5.8,-,N/A,,Clear,110,2013-06-23 04:53:00
1:53 AM,78.1,73.0,84,30.12,10.0,SE,8.1,-,N/A,,Clear,130,2013-06-23 05:53:00
2:53 AM,77.0,73.0,88,30.11,10.0,ESE,3.5,-,N/A,,Clear,110,2013-06-23 06:53:00
3:53 AM,77.0,73.0,88,30.11,10.0,Calm,Calm,-,N/A,,Clear,0,2013-06-23 07:53:00
4:53 AM,77.0,73.0,88,30.11,10.0,ESE,4.6,-,N/A,,Clear,120,2013-06-23 08:53:00
5:53 AM,77.0,73.0,88,30.11,10.0,SE,3.5,-,N/A,,Clear,140,2013-06-23 09:53:00
6:53 AM,75.0,72.0,90,30.12,10.0,Calm,Calm,-,N/A,,Clear,0,2013-06-23 10:53:00
7:53 AM,79.0,73.9,84,30.14,10.0,East,3.5,-,N/A,,Clear,80,2013-06-23 11:53:00
8:53 AM,81.0,75.0,82,30.14,10.0,Variable,4.6,-,N/A,,Clear,0,2013-06-23 12:53:00
9:53 AM,82.9,73.9,74,30.16,10.0,SSE,3.5,-,N/A,,Clear,150,2013-06-23 13:53:00
10:53 AM,84.0,73.0,69,30.17,10.0,Variable,3.5,-,N/A,,Clear,0,2013-06-23 14:53:00
11:53 AM,86.0,72.0,63,30.17,10.0,Calm,Calm,-,N/A,,Clear,0,2013-06-23 15:53:00
12:53 PM,88.0,72.0,59,30.16,10.0,Variable,5.8,-,N/A,,Clear,0,2013-06-23 16:53:00
1:53 PM,89.1,71.1,55,30.14,10.0,Variable,3.5,-,N/A,,Mostly Cloudy,0,2013-06-23 17:53:00
2:53 PM,90.0,69.1,50,30.12,10.0,Variable,5.8,-,N/A,,Mostly Cloudy,0,2013-06-23 18:53:00
3:26 PM,78.8,71.6,78,30.14,1.8,SSE,8.1,24.2,0.23,Rain,Heavy Rain,160,2013-06-23 19:26:00
3:40 PM,78.8,73.4,83,30.14,2.5,South,3.5,-,0.29,Rain,Rain,180,2013-06-23 19:40:00
3:53 PM,80.1,73.9,81,30.12,8.0,SSE,6.9,-,0.30,Rain,Light Rain,150,2013-06-23 19:53:00
4:53 PM,81.0,75.0,82,30.11,10.0,SE,8.1,-,0.00,Rain,Light Rain,140,2013-06-23 20:53:00
5:53 PM,82.9,75.0,77,30.12,10.0,SE,9.2,-,0.00,,Scattered Clouds,130,2013-06-23 21:53:00
6:53 PM,82.9,75.0,77,30.12,10.0,SE,8.1,-,N/A,,Clear,140,2013-06-23 22:53:00
7:53 PM,82.0,73.0,74,30.12,10.0,ESE,11.5,-,N/A,,Clear,120,2013-06-23 23:53:00
8:53 PM,81.0,73.0,77,30.13,10.0,East,6.9,-,N/A,,Clear,90,2013-06-24 00:53:00
9:53 PM,81.0,73.9,79,30.16,10.0,ESE,10.4,-,N/A,,Clear,120,2013-06-24 01:53:00
10:53 PM,80.1,73.9,81,30.17,10.0,ESE,10.4,-,N/A,,Clear,120,2013-06-24 02:53:00
11:53 PM,79.0,73.9,84,30.17,10.0,ESE,8.1,-,N/A,,Clear,120,2013-06-24 03:53:00